Location: Recife
(8.0585°S, 34.8848°W)
Time: 10:20:44
(UTC-03:00)

Courier 1B Rocket - Pass Details

Date: 18 April 2026
Orbit: 920 x 1201 km, 28.2° (Epoch: 13 May)

Event Time Altitude Azimuth Distance (km) Brightness Sun altitude
Rises 01:40:56 0° 320° (NW) 3,560 - -54.9°
Reaches altitude 10° 01:43:53 10° 331° (NNW) 2,604 - -54.2°
Maximum altitude 01:49:14 30° 31° (NNE) 1,581 - -52.9°
Drops below altitude 10° 01:54:37 10° 90° (E) 2,627 - -51.5°
Exits shadow 01:55:12 - 93° (E) 2,809 7.9 -51.4°
Sets 01:57:35 0° 101° (E) 3,597 8.6 -50.8°
